Tracking 19280 objects as of 15-Nov-2018
HD Live streaming from Space Station
objects crossing your sky now

USA 136

Track USA 136 now!
USA 136 is classified as:


NORAD ID: 25034
Int'l Code: 1997-068A
Perigee: 4,069.1 km
Apogee: 36,308.2 km
Inclination: 63.4 °
Period: 717.9 minutes
Semi major axis: 26559 km
RCS: Unknown
Launch date: November 8, 1997
Source: United States (US)
Launch site: AIR FORCE EASTERN TEST RANGE (AFETR)

Signals intelligence; surveillance of cellular phones.
aabbcc
Your satellite tracking list
Your tracking list is empty




NASA's NSSDC Master Catalog

Two Line Element Set (TLE):
1 25034U 97068A   18295.52437303 0.00000000  00000-0  00000-0 0    09
2 25034  63.4444 182.1835 6069176 283.4725  19.0741  2.00571359    09
Source of the keplerian elements: McCants